Weather Roundup
Issued by NWS

Home | Current Version | Previous Version | Graphics & Text | Print | Product List | Glossary Off
Versions: 1 2 3 4 5 6 7 8 9 10 11 12 13 14 15 16 17 18 19 20 21 22 23 24 25 26 27 28 29 30 31 32 33 34 35 36 37 38 39 40 41 42 43 44 45 46 47 48 49 50

000
NZUS93 KARX 291610
HRRWXR

CURRENT HOURLY OBSERVATIONS ACROSS
MUCH OF THE UPPER MISSISSIPPI VALLEY
NATIONAL WEATHER SERVICE LA CROSSE WI
1100 AM CDT MON JUN 29 2015


...SOUTHEAST MINNESOTA...


CITY           SKY/WX    TMP DP  RH WIND       PRES   REMARKS
ROCHESTER      SUNNY     76  66  71 NW9       29.86S
ROCHESTER/MAYO FAIR      74  64  70 W12       29.84F
WINONA         MOSUNNY   72  64  78 N3        29.83S
AUSTIN         SUNNY     73  66  78 NW7       29.86S
ALBERT LEA       N/A     73  66  78 W9G18     29.87S
DODGE CENTER   SUNNY     75  66  73 NW6       29.86S
PRESTON        MOSUNNY   73  63  72 NW8       29.86S
OWATONNA       SUNNY     75  64  69 W9        29.86S
FARIBAULT      SUNNY     75  66  73 W9        29.86S
$$

...ELSEWHERE IN MINNESOTA...


CITY           SKY/WX    TMP DP  RH WIND       PRES   REMARKS
MINNEAPOLIS    MOSUNNY   78  64  61 W8        29.83F
INTNL FALLS    SUNNY     73  60  63 N9        29.79S
DULUTH         PTSUNNY   75  62  64 N10G16    29.80R THUNDER
RED WING       SUNNY     77  64  65 NW3       29.81F
REDWOOD FALLS  SUNNY     75  64  68 W9        29.88S
MANKATO        SUNNY     75  64  69 NW10      29.87S
WORTHINGTON    SUNNY     75  61  60 NW13      29.93S
FAIRMONT       SUNNY     75  63  64 NW9       29.89S
$$

...SOUTHWEST WISCONSIN...


CITY           SKY/WX    TMP DP  RH WIND       PRES   REMARKS
LA CROSSE      PTSUNNY   72  63  73 NW7       29.82S
PRAIRIE DU CHI MOSUNNY   72  61  68 NW6       29.83S
BOSCOBEL       PTSUNNY   75  64  68 CALM      29.83S
LONE ROCK      PTSUNNY   73  60  63 N3        29.82S
PLATTEVILLE    PTSUNNY   69  64  83 CALM      29.84S
FORT MC COY    PTSUNNY   69  59  70 W3        29.84S
CAMP DOUGLAS   CLOUDY    64  64 100 W1        29.83S
VIROQUA        CLOUDY    71  65  81 N3        29.84S
WIS DELLS      MOSUNNY   71  59  65 NW3       29.82S
$$

...ELSEWHERE IN WISCONSIN...


CITY           SKY/WX    TMP DP  RH WIND       PRES   REMARKS
MILWAUKEE      CLOUDY    70  57  63 CALM      29.83S
MADISON        CLOUDY    71  64  78 VRB3      29.82S
GREEN BAY      PTSUNNY   75  60  59 S8        29.82S
EAU CLAIRE     MOSUNNY   74  63  68 CALM      29.81S
BLACK RVR FLS  PTSUNNY   69  61  75 CALM      29.82F
MEDFORD        PTSUNNY   69  60  73 CALM      29.82F
WAUSAU         SUNNY     71  60  68 S5        29.80F
WIS RAPIDS     PTSUNNY   70  59  68 VRB5      29.83F
MARSHFIELD     PTSUNNY   70  59  68 W5        29.83S
RICE LAKE      MOSUNNY   73  64  74 CALM      29.83S
$$

...NORTHEAST IOWA...


CITY           SKY/WX    TMP DP  RH WIND       PRES   REMARKS
DECORAH          N/A    N/A N/A N/A MISG        N/A
MASON CITY     SUNNY     77  66  68 NW9       29.89S
CHARLES CITY   SUNNY     75  70  83 NW8       29.86S
OELWEIN        MOSUNNY   73  64  73 N5        29.86S
$$

...ELSEWHERE IN IOWA...


CITY           SKY/WX    TMP DP  RH WIND       PRES   REMARKS
DES MOINES     MOSUNNY   80  64  58 NW9       29.88S
IOWA CITY      SUNNY     74  64  71 W7        29.86S
FORT DODGE     SUNNY     77  64  65 NW6       29.91R
$$

...NORTHERN ILLINOIS...


CITY           SKY/WX    TMP DP  RH WIND       PRES   REMARKS
CHICAGO-OHARE  PTSUNNY   71  64  78 NE7       29.81S
CHICAGO-MIDWAY PTSUNNY   73  65  75 CALM      29.81S
MOLINE         CLOUDY    70  62  76 NW7       29.84S
ROCKFORD       CLOUDY    73  62  68 CALM      29.83F
PEORIA         MOSUNNY   77  63  61 VRB6      29.84S
$$

NOTE: "FAIR" INDICATES FEW OR NO CLOUDS BELOW 12,000 FEET WITH NO
SIGNIFICANT WEATHER AND/OR OBSTRUCTIONS TO VISIBILITY. WIND
SPEEDS ARE IN MILES-PER-HOUR.



USA.gov is the U.S. government's official web portal to all federal, state and local government web resources and services.